Showing default

GAOFEN 9 02, 45625

Orbit data source: Space-Track

GAOFEN 9 02, 45625 is a payload satellite owned by GGKGJ (CN) in SSO that was launched on Sun, 31 May 2020 UTC via a CHANG ZHENG 2D launch vehicle from the Jiuquan Satellite Launch Center, China (JSC). Payload-class satellites include a variety of spacecraft equipped with specific instruments for various scientific and technological missions. These include communications satellites like Starlink; space stations such as the ISS; scientific satellites like the Hubble; Earth observation satellites from companies like Planet Labs, Umbra, and HawkEye 360; GPS; miniature CubeSats for education and research; and military/defense satellites.

Loading next visibility...
Identifier
45625, 2020-034B
Orbit
SSO
Country
Flag of CNCN / PRC
Related business
Manufacturer
DFH
Mission
Operational Defense Imaging
Bus & Motor
CAST-3000, AOCS
Mass
~1,700 kg wet, ~1,500 kg dry
Launch date (UTC)
2020-05-31 (6 years ago)
Launch vehicle
CHANG ZHENG 2D
Launch site
Jiuquan Satellite Launch Center, China (JSC)
Object type
Payload
Rocket body
Debris
Shape & HBR
Box + 2 Pan, Unknown HBR
Radar Cross Section
4.991 m², Large (>1 m²)

Expand to show TLE details & history
Last TLE update: 22 hours ago

TLE from 22 hours ago
0 GAOFEN 9 02
1 45625U 20034B   26172.51473701  .00005380  00000-0  21171-3 0  9998
2 45625  97.5761 329.9091 0013633  57.1737 303.0812 15.25996478336823
Epoch: 2026-06-21T12:21Z
TLE epoch observation values (Epoch: 2026-06-21T12:21:13.277Z)
Latitude
Longitude
-125.11013°
Altitude
485.787 km
Speed
7.625 km/s
True Right ascension
21h 59m 38s
True Declination
0° 00' 00"
Sunlit
Object was in full shadow at epoch
Visualization orbit readout
Latitude
Unknown
Longitude
Unknown
Altitude
Unknown
Speed
Unknown
Apparent Right ascension
Unknown
Apparent Declination
Unknown
Sunlit
N/A
Visualization observer readout
Local Sidereal Time
21:28:28
Azimuth
Unknown
Elevation
Unknown
Doppler factor
Unknown
Orbital elements
Apogee altitude
494.116 km
Perigee altitude
475.404 km
Semi-major axis
6,862.897 km
Eccentricity
0.00136
Inclination
97.5761°
RAAN
329.9091°
Arg. of periapsis
57.1737°
True anomaly
302.95018°
Mean anomaly
303.0812°
Eccentric anomaly
303.0157°
Mean motion
3.81753 °/min
Orbital period
94.3 mins
BSTAR
0.00021171
Loading maneuver chart data...
Computing Atmospheric mass density...
Loading historical data...
Loading historical data...
Loading historical data...
Loading historical data...
Loading historical data...
Loading historical data...
Loading historical data...

Documentation

Showing up to 5 results
|